#timestamp,LO_Frequency,Hit,StdDev 
1577977215.4,286047013.8,N
1577977235.2,286047012.4,N
1577977255.1,286047010.7,N
1577977256.0,286047010.7,N
1577977275.8,286047010.4,N
1577977295.6,286047011.1,N
1577977315.5,286047011.0,N
1577977335.3,286047011.6,N
1577977355.1,286047013.0,Y
1577977375.9,286047004.0,P
1577977395.7,286047007.2,N
1577977415.6,286047007.9,N
1577977435.4,286047008.7,Y
1577977455.2,286047002.0,P
1577977475.1,286047003.1,N
1577977476.0,286047003.1,N
1577977495.8,286047002.4,N
1577977515.6,286046997.3,N
1577977535.5,286046997.9,N
1577977555.3,286046995.2,N
1577977575.2,286046991.8,N
1577977595.9,286046991.7,N
1577977615.7,286046994.0,N
1577977635.6,286046993.3,N
1577977655.4,286046993.4,N
1577977675.2,286046993.7,N
1577977695.1,286046993.9,N
1577977696.0,286046993.9,N
1577977715.8,286046994.3,N
1577977735.7,286046996.1,N
1577977755.5,286046995.0,N
1577977775.3,286046996.8,N
1577977795.2,286046997.0,N
1577977815.0,286046994.2,N
1577977815.9,286046994.2,N
1577977835.7,286046993.1,N
1577977855.6,286046991.3,N
1577977875.4,286046994.4,N
1577977895.3,286046997.6,N
1577977915.1,286046997.9,N
1577977916.0,286046997.9,N
1577977935.8,286046998.4,N
1577977955.7,286046997.3,N
1577977975.5,286046996.4,N
1577977995.3,286046993.9,N
1577978015.2,286046992.0,N
1577978035.0,286046996.3,N
1577978035.9,286046996.3,N
1577978055.8,286046997.9,N
1577978075.6,286046993.3,Y
1577978095.4,286047000.4,P
1577978115.3,286046999.3,N
1577978135.1,286046993.6,N
1577978155.8,286046995.0,N
1577978175.7,286047006.0,N
1577978195.5,286047009.0,N
1577978215.4,286047006.2,N
1577978235.2,286047007.3,N
1577978255.0,286047005.2,N
1577978255.9,286047005.2,N
1577978275.8,286047002.9,N
1577978295.6,286047002.9,N
1577978315.4,286047005.6,N
1577978335.3,286047004.9,N
1577978355.1,286047005.7,N
1577978375.9,286047007.5,N
1577978395.7,286047005.9,N
1577978415.5,286047004.8,N
1577978435.4,286047004.8,N
1577978455.2,286047008.5,N
1577978475.0,286047006.1,N
1577978475.9,286047006.1,N
1577978495.8,286047007.9,N
1577978515.6,286047010.3,N
1577978535.5,286047008.1,N
1577978555.3,286047013.9,Y
1577978575.1,286047005.1,P
1577978595.9,286047005.7,P
1577978615.7,286047009.2,P
1577978635.5,286047008.6,Y
1577978655.4,286047003.6,P
1577978675.2,286047007.3,P
1577978695.1,286047007.9,P
1577978696.0,286047007.9,Y
1577978715.8,286047004.1,P
1577978735.6,286047004.0,P
1577978755.5,286047000.5,N
1577978775.3,286047003.6,N
1577978795.1,286047005.9,Y
1577978815.9,286046998.8,P
1577978835.7,286047002.3,N
1577978855.6,286046999.8,N
1577978875.4,286047000.2,N
1577978895.2,286047005.4,Y
1577978915.1,286047000.5,P
1577978916.0,286047000.5,N
1577978935.8,286047001.5,P
1577978955.7,286047009.2,Y
1577978975.5,286047008.1,P
1577978995.3,286047010.2,N
1577979015.2,286047006.2,N
1577979035.9,286047002.9,N
1577979055.7,286047003.6,N
1577979075.6,286047007.7,N
1577979095.4,286047011.5,Y
1577979115.3,286047005.1,P
1577979135.1,286047002.6,P
1577979136.0,286047002.6,N
1577979155.8,286047002.3,N
1577979175.7,286047001.6,N
1577979195.5,286047004.2,N
1577979215.3,286047006.3,Y
1577979235.2,286047002.1,P
1577979255.0,286047000.3,N
1577979255.9,286047000.3,N
1577979275.8,286047003.0,N
1577979295.6,286047003.7,N
1577979315.4,286047003.4,N
1577979335.3,286047004.7,Y
1577979355.1,286047005.6,P
1577979375.9,286047006.7,P
1577979395.7,286047006.4,P
1577979445.6,286047008.2,E
1577979455.5,286047005.0,N
1577979475.3,286047001.2,P
1577979495.2,286047005.2,N
1577979515.9,286047006.0,Y
1577979535.7,286047002.6,P
1577979555.6,286047004.2,P
1577979575.4,286047004.2,P
1577979595.3,286047007.5,Y
1577979615.1,286047003.9,P
1577979616.0,286047003.9,P
1577979635.8,286047005.6,P
1577979655.7,286047005.0,Y
1577979675.5,286047001.6,P
1577979695.3,286047000.4,N
1577979715.2,286047001.8,N
1577979735.0,286047004.0,N
1577979735.9,286047004.0,N
1577979755.8,286047009.2,Y
1577979775.6,286047003.1,P
1577979795.4,286047003.5,P
1577979815.3,286047008.0,P
1577979835.1,286047011.6,Y
1577979855.9,286047003.6,P
1577979875.7,286047010.8,P
1577979895.5,286047007.8,N
1577979915.4,286047009.1,Y
1577979935.2,286046999.2,P
1577979955.0,286047002.7,N
1577979955.9,286047002.7,N
1577979975.8,286047000.0,N
1577979995.6,286046998.5,N
1577980015.5,286046998.9,N
1577980035.3,286047002.8,N
1577980055.1,286046998.3,N
1577980075.9,286047001.6,N
1577980095.7,286047002.8,N
1577980115.5,286047000.7,N
1577980135.4,286047010.5,Y
1577980155.2,286047009.3,P
1577980175.1,286047005.0,N
1577980176.0,286047005.0,N
1577980195.8,286047004.2,N
1577980215.6,286047001.7,N
1577980235.5,286047005.1,N
1577980255.3,286047008.7,Y
1577980275.2,286047001.8,P
1577980295.9,286047000.3,N
1577980315.7,286046996.8,N
1577980335.6,286046997.2,N
1577980355.4,286046998.8,N
1577980375.2,286047004.2,N
1577980395.1,286047002.8,N
1577980396.0,286047002.8,N
1577980445.9,286047011.3,E
1577980455.8,286047006.5,N
1577980475.6,286046998.6,P
1577980495.4,286047002.6,N
1577980515.3,286047000.9,N
1577980535.1,286047001.8,N
1577980555.9,286047000.8,N
1577980575.7,286046998.9,N
1577980595.5,286047000.1,N
1577980615.4,286046998.1,N
1577980635.2,286047000.5,N
1577980655.0,286046996.7,N
1577980655.9,286046996.7,N
1577980675.8,286046996.9,N
1577980695.6,286047000.8,N
1577980715.5,286047001.4,N
1577980735.3,286047003.8,N
1577980755.1,286047001.8,N
1577980775.9,286047005.4,N
1577980795.7,286047006.7,N
